Tracking 19476 objects as of 17-Jan-2019
HD Live streaming from Space Station
objects crossing your sky now

COSMOS 650

Track COSMOS 650 now!
10-day predictions
COSMOS 650 is classified as:


NORAD ID: 7281
Int'l Code: 1974-028A
Perigee: 1,374.3 km
Apogee: 1,407.7 km
Inclination: 74.0 °
Period: 113.4 minutes
Semi major axis: 7761 km
RCS: 3.562 m2 (large)
Launch date: April 29, 1974
Source: Commonwealth of Independent States (former USSR) (CIS)
Launch site: PLESETSK MISSILE AND SPACE COMPLEX (PKMTR)
aabbcc
Your satellite tracking list
Your tracking list is empty




NASA's NSSDC Master Catalog

Two Line Element Set (TLE):
1  7281U 74028A   19015.96995111 -.00000020 +00000-0 -14187-4 0  9995
2  7281 074.0445 322.3593 0021501 330.6444 093.0698 12.69528597072349
Source of the keplerian elements: AFSPC